DW2686 Weather Reports


Display with metric or nautical units.
time (UTC)temp
F
wind
direction
speed
MPH
gust
MPH
rain 1hr
in
rain 24hr
in
rain mn
in
humidity
%
barometer
mb
20260510174502 79 235 1.0 4.0 0.00 0.06 0.01 74 1014.5
20260510174004 79 204 1.0 4.0 0.00 0.06 0.01 72 1014.5
20260510173501 79 5 0.0 6.0 0.00 0.06 0.01 74 1014.6
20260510173001 78 29 3.0 6.0 0.00 0.06 0.01 75 1014.6
20260510172501 79 340 2.0 5.0 0.00 0.06 0.01 74 1014.7
20260510172100 79 350 2.0 5.0 0.00 0.06 0.01 73 1014.7
20260510171609 79 19 2.0 4.0 0.00 0.06 0.01 73 1014.7
20260510171104 79 331 1.0 4.0 0.00 0.06 0.01 75 1014.8
20260510170600 79 164 0.0 4.0 0.00 0.06 0.01 74 1014.8
20260510170058 79 78 2.0 6.0 0.00 0.06 0.01 75 1014.8
20260510165557 79 61 3.0 6.0 0.00 0.23 0.01 76 1014.8
20260510165056 79 73 1.0 5.0 0.00 0.23 0.01 77 1014.8
20260510164557 78 78 3.0 5.0 0.00 0.23 0.01 76 1014.8
20260510164054 78 306 0.0 4.0 0.00 0.23 0.01 75 1014.8
20260510163554 78 282 1.0 4.0 0.00 0.23 0.01 74 1014.8
20260510163058 78 17 2.0 4.0 0.00 0.23 0.01 76 1014.8
20260510162553 78 161 0.0 4.0 0.00 0.23 0.01 75 1014.8
20260510162052 78 108 1.0 4.0 0.00 0.23 0.01 76 1014.7
20260510161551 77 65 1.0 6.0 0.00 0.23 0.01 79 1014.8
20260510161050 77 63 4.0 6.0 0.00 0.23 0.01 79 1014.8
20260510160549 77 324 1.0 6.0 0.00 0.23 0.01 80 1014.8
20260510160048 77 5 0.0 4.0 0.00 0.23 0.01 83 1014.7
20260510155550 76 94 2.0 4.0 0.00 0.41 0.01 82 1014.7
20260510155045 76 35 1.0 4.0 0.00 0.41 0.01 82 1014.6
20260510154551 76 327 1.0 4.0 0.00 0.41 0.01 84 1014.6
20260510154045 75 33 0.0 6.0 0.00 0.41 0.01 84 1014.6
20260510153543 76 73 4.0 6.0 0.00 0.41 0.01 82 1014.7
20260510153042 75 28 1.0 8.0 0.00 0.41 0.01 83 1014.7
20260510152543 75 42 1.0 8.0 0.00 0.41 0.01 84 1014.7
20260510152041 75 98 3.0 8.0 0.00 0.41 0.01 85 1014.8
20260510151542 74 81 1.0 4.0 0.00 0.41 0.01 87 1014.7
20260510151037 74 180 0.0 4.0 0.00 0.41 0.01 88 1014.8
20260510150535 74 47 1.0 5.0 0.00 0.41 0.01 88 1014.8
20260510150035 73 69 1.0 5.0 0.00 0.41 0.01 89 1014.8
20260510145533 73 90 1.0 5.0 0.00 0.66 0.01 90 1014.9
20260510145030 72 102 1.0 4.0 0.00 0.66 0.01 91 1014.9
20260510144533 72 56 1.0 5.0 0.00 0.66 0.01 92 1014.9
20260510144028 71 53 2.0 5.0 0.00 0.66 0.01 94 1014.9
20260510143526 71 46 0.0 5.0 0.00 0.66 0.01 95 1015.0
20260510143025 71 44 1.0 5.0 0.00 0.66 0.01 96 1015.1
20260510142524 70 48 2.0 4.0 0.00 0.66 0.01 96 1015.1
20260510142024 70 9 1.0 3.0 0.00 0.66 0.01 96 1015.1
20260510141523 70 114 1.0 3.0 0.00 0.66 0.01 97 1015.1
20260510141023 69 125 0.0 2.0 0.00 0.66 0.01 97 1015.0
20260510140521 69 125 0.0 3.0 0.00 0.66 0.01 97 1015.0
20260510140019 69 129 0.0 3.0 0.00 0.66 0.01 97 1014.9
20260510135519 69 101 2.0 3.0 0.00 0.67 0.01 97 1014.9
20260510135018 68 65 0.0 2.0 0.00 0.67 0.01 97 1014.7
20260510134517 68 65 0.0 2.0 0.00 0.67 0.01 97 1014.8
20260510134017 68 65 0.0 2.0 0.00 0.67 0.01 97 1014.8
20260510133515 68 126 0.0 2.0 0.00 0.67 0.01 97 1014.8
20260510133015 67 41 0.0 2.0 0.00 0.67 0.01 97 1014.8
20260510132515 67 41 1.0 3.0 0.00 0.67 0.01 97 1014.7
20260510132015 67 41 1.0 4.0 0.00 0.67 0.01 97 1014.8
20260510131527 67 88 1.0 3.0 0.00 0.67 0.01 97 1014.8
20260510131011 67 101 1.0 4.0 0.00 0.67 0.01 97 1014.6
20260510130514 66 55 2.0 4.0 0.00 0.67 0.01 97 1014.7
20260510130010 66 44 1.0 3.0 0.00 0.67 0.01 97 1014.6
20260510125509 66 25 1.0 4.0 0.00 0.69 0.01 97 1014.6
20260510125007 66 42 2.0 4.0 0.00 0.69 0.01 97 1014.5
20260510124509 66 39 2.0 3.0 0.00 0.69 0.01 97 1014.4
20260510124007 66 71 1.0 3.0 0.00 0.69 0.01 97 1014.3
20260510123507 66 63 1.0 5.0 0.00 0.69 0.01 97 1014.2
20260510123007 66 62 2.0 5.0 0.00 0.69 0.01 97 1014.2
20260510122508 66 63 1.0 3.0 0.00 0.69 0.01 97 1014.1
20260510122003 65 36 1.0 2.0 0.00 0.69 0.01 97 1014.0
20260510121502 65 36 0.0 2.0 0.00 0.69 0.01 97 1013.9
20260510121002 65 36 0.0 2.0 0.00 0.69 0.01 97 1013.8
20260510120601 65 36 0.0 1.0 0.00 0.69 0.01 97 1013.6
20260510120058 65 36 1.0 2.0 0.00 0.69 0.01 97 1013.6
20260510115556 65 36 0.0 2.0 0.00 0.70 0.01 97 1013.5
20260510115056 65 36 0.0 2.0 0.00 0.70 0.01 97 1013.4
20260510114554 64 36 0.0 2.0 0.00 0.70 0.01 97 1013.3
20260510114052 64 36 0.0 2.0 0.00 0.70 0.01 97 1013.2
20260510113552 64 36 0.0 2.0 0.00 0.70 0.01 97 1013.1
20260510113058 64 36 0.0 2.0 0.00 0.70 0.01 96 1013.2
20260510112549 64 36 1.0 2.0 0.00 0.70 0.01 97 1013.1
20260510112048 64 36 0.0 2.0 0.00 0.70 0.01 97 1013.0
20260510111547 64 36 0.0 2.0 0.00 0.70 0.01 96 1013.1
20260510111045 64 36 0.0 1.0 0.00 0.70 0.01 96 1013.0
20260510110544 65 36 0.0 2.0 0.01 0.70 0.01 96 1012.9
20260510110043 65 36 0.0 2.0 0.01 0.70 0.01 96 1012.8
20260510105542 65 36 0.0 2.0 0.01 0.70 0.01 96 1012.7
20260510105042 65 36 0.0 2.0 0.01 0.70 0.01 96 1012.7
20260510104542 65 36 0.0 2.0 0.01 0.70 0.01 96 1012.7
20260510104040 65 36 0.0 2.0 0.01 0.70 0.01 96 1012.6
20260510103540 65 36 0.0 2.0 0.01 0.70 0.01 96 1012.5
20260510103039 65 36 0.0 2.0 0.01 0.70 0.01 96 1012.4
20260510102540 65 36 0.0 2.0 0.01 0.70 0.01 96 1012.4
20260510102038 65 36 0.0 1.0 0.01 0.70 0.01 96 1012.4
20260510101538 65 36 0.0 1.0 0.01 0.70 0.01 96 1012.3
20260510101038 65 36 0.0 2.0 0.01 0.70 0.01 96 1012.4
20260510100537 65 36 0.0 2.0 0.00 0.69 0.00 96 1012.3
20260510100035 65 36 0.0 2.0 0.00 0.69 0.00 96 1012.2
20260510095534 65 36 0.0 1.0 0.00 0.69 0.00 96 1012.1
20260510095033 65 36 0.0 0.0 0.00 0.69 0.00 96 1012.0
20260510094536 65 36 0.0 2.0 0.00 0.69 0.00 96 1011.9
20260510094032 65 36 0.0 2.0 0.00 0.69 0.00 96 1011.7
20260510093532 65 36 0.0 2.0 0.00 0.69 0.00 96 1011.7
20260510093032 65 36 0.0 0.0 0.00 0.69 0.00 96 1011.6
20260510092532 65 36 0.0 2.0 0.00 0.69 0.00 96 1011.7
20260510092031 66 36 0.0 2.0 0.00 0.69 0.00 96 1011.6
20260510091532 66 36 0.0 2.0 0.00 0.69 0.00 96 1011.6
20260510091030 66 36 0.0 2.0 0.00 0.69 0.00 96 1011.7
20260510090530 66 36 0.0 2.0 0.00 0.69 0.00 96 1011.5
20260510090029 66 36 0.0 2.0 0.00 0.69 0.00 96 1011.4
20260510085528 66 36 0.0 2.0 0.00 0.69 0.00 96 1011.4
20260510085028 66 36 0.0 2.0 0.00 0.69 0.00 96 1011.4
20260510084533 66 36 0.0 3.0 0.00 0.69 0.00 96 1011.5
20260510084028 66 36 1.0 3.0 0.00 0.69 0.00 96 1011.4
20260510083528 66 53 1.0 2.0 0.00 0.69 0.00 96 1011.3
20260510083028 66 318 0.0 2.0 0.00 0.69 0.00 96 1011.4
20260510082526 66 318 0.0 2.0 0.00 0.69 0.00 96 1011.3
20260510082026 66 318 0.0 2.0 0.00 0.69 0.00 96 1011.2
20260510081526 66 346 0.0 2.0 0.00 0.69 0.00 96 1011.2
20260510081026 66 346 0.0 2.0 0.00 0.69 0.00 96 1011.0
20260510080526 66 346 0.0 2.0 0.00 0.69 0.00 96 1010.8
20260510080031 66 346 0.0 1.0 0.00 0.69 0.00 96 1010.8
20260510075525 66 346 0.0 2.0 0.00 0.69 0.00 96 1010.8
20260510075025 66 71 1.0 1.0 0.00 0.69 0.00 96 1010.8
20260510074525 66 71 0.0 2.0 0.00 0.69 0.00 96 1010.8
20260510074025 66 71 0.0 2.0 0.00 0.69 0.00 96 1010.8
20260510073528 66 71 0.0 2.0 0.00 0.69 0.00 96 1010.7
20260510073028 66 71 0.0 2.0 0.00 0.69 0.00 96 1010.8
20260510072524 66 71 0.0 2.0 0.00 0.69 0.00 96 1010.8
20260510072025 66 71 0.0 1.0 0.00 0.69 0.00 96 1010.6
20260510071526 66 71 0.0 2.0 0.00 0.69 0.00 96 1010.8
20260510071023 67 71 0.0 2.0 0.00 0.69 0.00 96 1010.7
20260510070523 67 71 0.0 2.0 0.00 0.69 0.00 96 1010.6
20260510070023 67 71 0.0 2.0 0.00 0.69 0.00 96 1010.4
20260510065522 67 71 0.0 2.0 0.00 0.70 0.00 96 1010.5
20260510065022 67 71 0.0 2.0 0.00 0.70 0.00 96 1010.6
20260510064538 67 71 0.0 3.0 0.00 0.70 0.00 96 1010.6
20260510064021 67 71 1.0 3.0 0.00 0.70 0.00 96 1010.6
20260510063521 67 91 0.0 3.0 0.00 0.70 0.00 96 1010.6
20260510063025 67 117 0.0 3.0 0.00 0.70 0.00 96 1010.6
20260510062518 67 173 1.0 3.0 0.00 0.70 0.00 96 1010.7
20260510062018 66 168 0.0 2.0 0.00 0.70 0.00 96 1010.8
20260510061517 66 83 0.0 2.0 0.00 0.70 0.00 96 1011.0
20260510061017 66 311 0.0 2.0 0.00 0.70 0.00 96 1011.1
20260510060516 66 311 0.0 1.0 0.00 0.70 0.00 96 1011.1
20260510060015 66 311 0.0 0.0 0.00 0.70 0.00 96 1011.3
20260510055514 66 311 0.0 0.0 0.00 0.70 0.00 96 1011.3
20260510055014 66 311 0.0 2.0 0.00 0.70 0.00 96 1011.3
20260510054515 66 311 0.0 2.0 0.00 0.70 0.00 96 1011.3
20260510054013 66 310 0.0 1.0 0.00 0.70 0.00 96 1011.3
20260510053515 66 311 0.0 0.0 0.00 0.70 0.00 96 1011.5
20260510053031 67 311 0.0 2.0 0.00 0.70 0.00 96 1011.5
20260510052510 67 310 0.0 2.0 0.00 0.70 0.00 96 1011.7
20260510052010 67 310 0.0 2.0 0.00 0.70 0.00 96 1011.5
20260510051509 67 311 0.0 2.0 0.00 0.70 0.00 96 1011.6
20260510051012 67 310 0.0 1.0 0.00 0.70 0.00 96 1011.8
20260510050507 67 311 0.0 1.0 0.00 0.70 0.00 96 1011.7
20260510050007 67 311 0.0 2.0 0.00 0.70 0.00 96 1011.6
20260510045506 67 310 0.0 2.0 0.00 0.70 0.70 96 1011.5
20260510045007 67 310 0.0 2.0 0.00 0.70 0.70 96 1011.5
20260510044506 68 311 1.0 3.0 0.00 0.70 0.70 96 1011.4
20260510044006 68 107 0.0 4.0 0.00 0.70 0.70 96 1011.2
20260510043506 68 101 0.0 4.0 0.00 0.70 0.70 96 1011.1
20260510043006 68 90 1.0 4.0 0.00 0.70 0.70 96 1011.3
20260510042506 68 80 0.0 2.0 0.00 0.70 0.70 96 1011.7
20260510042005 68 80 0.0 2.0 0.00 0.70 0.70 96 1011.9
20260510041505 68 80 0.0 1.0 0.00 0.70 0.70 96 1012.0
20260510041005 68 80 0.0 1.0 0.00 0.70 0.70 96 1011.9
20260510040505 68 80 0.0 2.0 0.00 0.70 0.70 96 1011.8
20260510040004 68 80 0.0 2.0 0.00 0.70 0.70 96 1011.9
20260510035503 68 80 0.0 2.0 0.00 0.71 0.70 96 1012.1
20260510035005 68 80 0.0 2.0 0.00 0.71 0.70 96 1011.9
20260510034503 68 80 0.0 2.0 0.00 0.71 0.70 96 1011.9
20260510034004 68 80 0.0 2.0 0.01 0.71 0.70 96 1012.1
20260510033503 68 80 0.0 2.0 0.01 0.71 0.70 96 1012.2
20260510033003 68 80 0.0 2.0 0.01 0.71 0.70 96 1012.2
20260510032502 68 80 0.0 2.0 0.01 0.71 0.70 96 1012.0
20260510032004 68 80 0.0 2.0 0.01 0.71 0.70 96 1011.9
20260510031503 68 80 0.0 2.0 0.01 0.71 0.70 96 1011.8
20260510031003 68 80 0.0 2.0 0.01 0.71 0.70 96 1011.8
20260510030502 68 80 0.0 27.0 0.01 0.71 0.70 96 1011.8
20260510030003 68 80 0.0 1.0 0.01 0.71 0.70 96 1011.6
20260510025502 68 80 0.0 1.0 0.01 0.72 0.70 96 1011.6
20260510025001 68 80 0.0 2.0 0.01 0.72 0.70 96 1011.7
20260510024501 68 80 0.0 2.0 0.01 0.72 0.70 96 1011.5
20260510024001 68 80 0.0 3.0 0.00 0.71 0.69 96 1011.4
20260510023500 68 80 1.0 3.0 0.00 0.71 0.69 96 1011.2
20260510023001 68 88 1.0 2.0 0.00 0.71 0.69 96 1011.1
20260510022501 68 54 0.0 2.0 0.00 0.71 0.69 96 1011.3
20260510022100 68 54 0.0 2.0 0.00 0.71 0.69 96 1011.1
20260510021605 68 54 0.0 2.0 0.00 0.71 0.69 96 1011.3
20260510021100 68 26 0.0 2.0 0.00 0.71 0.69 96 1011.4
20260510020600 68 360 1.0 2.0 0.00 0.71 0.69 96 1011.5
20260510020059 68 360 0.0 2.0 0.00 0.71 0.69 96 1011.4
20260510015559 68 29 0.0 2.0 0.00 0.75 0.69 96 1011.3
20260510015058 68 231 0.0 2.0 0.01 0.75 0.69 96 1011.1
20260510014605 68 231 0.0 3.0 0.01 0.75 0.69 96 1011.1
20260510014058 68 109 0.0 3.0 0.01 0.75 0.69 96 1011.1
20260510013605 68 276 0.0 2.0 0.01 0.75 0.69 96 1011.2
20260510013128 68 276 0.0 2.0 0.01 0.75 0.69 96 1011.3
20260510012558 68 276 0.0 2.0 0.01 0.75 0.69 96 1011.4
20260510012058 68 276 0.0 2.0 0.01 0.75 0.69 96 1011.4
20260510011558 68 276 0.0 2.0 0.01 0.75 0.69 95 1011.4
20260510011058 68 276 0.0 2.0 0.01 0.75 0.69 96 1011.5
20260510010557 68 13 0.0 2.0 0.01 0.75 0.69 95 1011.5
20260510010057 68 13 0.0 2.0 0.01 0.75 0.69 95 1011.5
20260510005556 68 13 0.0 2.0 0.01 0.76 0.69 95 1011.6
20260510005058 68 13 0.0 1.0 0.00 0.75 0.69 95 1011.7
20260510004556 68 13 0.0 2.0 0.00 0.75 0.69 95 1011.7
20260510004055 68 13 0.0 2.0 0.01 0.75 0.69 95 1011.7
20260510003556 68 302 0.0 2.0 0.01 0.75 0.69 95 1011.6
20260510003105 68 5 0.0 2.0 0.01 0.75 0.69 95 1011.3
20260510002558 68 22 0.0 3.0 0.02 0.75 0.69 95 1011.2
20260510002100 68 49 1.0 3.0 0.02 0.75 0.69 95 1010.8
20260510001555 68 56 1.0 3.0 0.02 0.75 0.69 95 1010.3
20260510001056 68 82 2.0 3.0 0.02 0.75 0.69 95 1010.4
20260510000555 68 52 0.0 2.0 0.02 0.75 0.69 95 1010.4
20260510000118 68 83 1.0 6.0 0.02 0.75 0.69 95 1010.6
20260509235554 68 12 1.0 6.0 0.02 0.76 0.69 95 1010.6
20260509235054 68 44 4.0 8.0 0.02 0.76 0.69 94 1010.4
20260509234554 68 238 2.0 8.0 0.02 0.76 0.69 95 1009.4
20260509234053 69 173 1.0 9.0 0.02 0.76 0.68 95 1009.3
20260509233553 69 161 4.0 9.0 0.02 0.76 0.68 95 1009.4
20260509233054 69 139 1.0 4.0 0.02 0.76 0.68 95 1009.7
20260509232553 69 193 1.0 4.0 0.01 0.75 0.67 94 1009.9
20260509232055 69 97 0.0 4.0 0.01 0.75 0.67 94 1010.0
20260509231556 69 165 1.0 4.0 0.01 0.75 0.67 94 1010.2
20260509231053 69 94 0.0 2.0 0.01 0.75 0.67 94 1010.2
20260509230553 69 94 0.0 2.0 0.02 0.75 0.67 94 1010.3
20260509230057 70 94 0.0 2.0 0.01 0.74 0.66 94 1010.4
20260509225552 70 94 0.0 2.0 0.01 0.76 0.66 94 1010.5
20260509225052 70 94 0.0 2.0 0.01 0.76 0.66 94 1010.7
20260509224552 70 94 0.0 1.0 0.01 0.76 0.66 94 1010.7
20260509224053 70 94 0.0 2.0 0.01 0.76 0.66 94 1010.6
20260509223553 70 94 0.0 2.0 0.01 0.76 0.66 94 1010.7
20260509223100 69 94 0.0 2.0 0.01 0.76 0.66 93 1010.7
20260509222552 70 94 0.0 2.0 0.01 0.76 0.66 93 1010.6
20260509222051 70 94 0.0 2.0 0.01 0.76 0.66 93 1010.3
20260509221559 70 94 0.0 2.0 0.01 0.76 0.66 93 1010.3
20260509221052 70 94 0.0 2.0 0.01 0.76 0.66 93 1010.3
20260509220551 70 94 0.0 2.0 0.00 0.75 0.65 93 1010.1
20260509220050 70 5 0.0 2.0 0.00 0.75 0.65 93 1010.2
20260509215551 70 5 1.0 3.0 0.00 0.80 0.65 93 1010.5
20260509215151 70 5 1.0 3.0 0.00 0.80 0.65 93 1010.3
20260509214600 70 5 1.0 3.0 0.00 0.80 0.65 93 1010.6
20260509214050 70 321 0.0 3.0 0.00 0.80 0.65 93 1010.4
20260509213550 70 348 1.0 3.0 0.00 0.80 0.65 93 1010.2
20260509213050 70 335 1.0 3.0 0.00 0.80 0.65 92 1010.1
20260509212549 70 170 0.0 3.0 0.00 0.80 0.65 92 1009.8
20260509212049 70 169 0.0 2.0 0.00 0.80 0.65 92 1009.8
20260509211550 70 211 0.0 3.0 0.00 0.80 0.65 92 1010.1
20260509211049 70 188 0.0 3.0 0.00 0.80 0.65 92 1010.0
20260509210549 70 63 2.0 6.0 0.00 0.80 0.65 91 1010.3
20260509210050 70 107 3.0 6.0 0.00 0.80 0.65 91 1010.0
20260509205548 71 290 1.0 2.0 0.00 0.80 0.65 91 1010.5
20260509205047 70 290 0.0 2.0 0.00 0.80 0.65 90 1010.3
20260509204548 70 290 0.0 2.0 0.00 0.80 0.65 90 1010.3
20260509204047 71 149 0.0 2.0 0.00 0.80 0.65 90 1010.2
20260509203548 71 277 0.0 3.0 0.00 0.80 0.65 90 1010.5
20260509203047 71 332 0.0 3.0 0.00 0.80 0.65 90 1010.5
20260509202547 71 5 0.0 3.0 0.00 0.80 0.65 91 1010.0
20260509202047 71 355 0.0 3.0 0.00 0.80 0.65 89 1010.0
20260509201547 71 355 1.0 3.0 0.00 0.80 0.65 88 1010.1
20260509201046 71 350 0.0 3.0 0.00 0.80 0.65 90 1009.9
20260509200546 71 9 1.0 3.0 0.00 0.80 0.65 89 1009.4
20260509200051 71 62 1.0 3.0 0.00 0.80 0.65 90 1009.2
20260509195546 71 268 0.0 4.0 0.00 0.80 0.65 89 1008.9
20260509195045 71 212 1.0 7.0 0.00 0.80 0.65 89 1008.2
20260509194552 71 167 1.0 7.0 0.00 0.80 0.65 89 1007.9
20260509194045 71 154 2.0 4.0 0.00 0.80 0.65 88 1007.9
20260509193544 71 169 1.0 3.0 0.00 0.80 0.65 89 1008.5
20260509193047 71 46 2.0 5.0 0.00 0.80 0.65 89 1008.8
20260509192544 71 267 1.0 5.0 0.00 0.80 0.65 89 1008.6
20260509192045 71 192 2.0 6.0 0.00 0.80 0.65 89 1008.4
20260509191545 71 205 1.0 4.0 0.00 0.80 0.65 89 1008.5
20260509191045 70 194 2.0 4.0 0.00 0.80 0.65 89 1008.5
20260509190544 70 192 0.0 4.0 0.00 0.80 0.65 90 1008.5
20260509190043 70 213 1.0 7.0 0.00 0.80 0.65 89 1008.5
20260509185543 70 169 2.0 7.0 0.00 0.80 0.65 89 1008.4
20260509185043 70 192 4.0 7.0 0.00 0.80 0.65 90 1008.2
20260509184542 70 169 1.0 6.0 0.00 0.80 0.65 89 1008.2
20260509184043 70 161 3.0 10.0 0.00 0.80 0.65 88 1008.1
20260509183542 70 190 4.0 10.0 0.00 0.80 0.65 88 1008.2
20260509183059 71 184 4.0 9.0 0.00 0.80 0.65 88 1008.4
20260509182541 71 130 2.0 10.0 0.00 0.80 0.65 90 1008.6
20260509182041 71 168 2.0 10.0 0.00 0.80 0.65 90 1008.7
20260509181539 70 111 1.0 10.0 0.00 0.80 0.65 93 1009.2
20260509181038 70 170 3.0 8.0 0.00 0.80 0.65 92 1009.6
20260509180539 69 169 2.0 8.0 0.00 0.80 0.65 92 1009.9
20260509180034 69 140 3.0 8.0 0.00 0.80 0.65 93 1010.1
20260509175533 68 149 1.0 7.0 0.00 0.80 0.65 93 1010.5
20260509175033 68 61 1.0 6.0 0.02 0.80 0.65 95 1010.5